Regional Weather Roundup
Issued by NWS Boston, MA

Home | Current Version | Previous Version | Text Only | Print | Product List | Glossary On
Versions: 1 2 3 4 5 6 7 8 9 10 11 12 13 14 15 16 17 18 19 20 21 22 23 24 25 26 27
000
ASUS41 KBOX 231910
RWRBOX

REGIONAL WEATHER ROUNDUP
NATIONAL WEATHER SERVICE TAUNTON MA
300 PM EDT MON OCT 23 2017

NOTE:  "FAIR" INDICATES FEW OR NO CLOUDS BELOW 12,000 FEET WITH NO
SIGNIFICANT WEATHER AND/OR OBSTRUCTIONS TO VISIBILITY.

MAZALL-232000-
EASTERN MASSACHUSETTS

CITY           SKY/WX    TMP DP  RH WIND       PRES   REMARKS
BOSTON         PTSUNNY   59  57  93 E7        30.26F FOG
BEVERLY        MOSUNNY   65  59  81 SE6       30.25F
LAWRENCE       MOSUNNY   68  57  68 SE7       30.27F
BEDFORD        PTSUNNY   70  56  61 S5        30.23F
BLUE HILL        N/A     68  58  70 VRB3      30.25F
NORWOOD        PTSUNNY   75  61  61 S9        30.24F
MARSHFIELD     SUNNY     64  61  88 NE5       30.25F
PLYMOUTH       MOSUNNY   72  57  59 S9G17     30.26F
TAUNTON        PTSUNNY   74  59  59 SE12      30.24F
NEW BEDFORD    MOSUNNY   72  60  66 S13       30.24F
$$

MAZALL-232000-
CAPE COD AND THE ISLANDS

CITY           SKY/WX    TMP DP  RH WIND       PRES   REMARKS
FALMOUTH       SUNNY     72  63  73 S13       30.27F
HYANNIS        MOSUNNY   70  64  81 S9        30.25F
CHATHAM        SUNNY     68  63  84 VRB5      30.28F
PROVINCETOWN   SUNNY     72  62  71 S12       30.26F
NANTUCKET      MOSUNNY   68  65  90 SE13      30.27F
MARTHAS VNYRD  SUNNY     71  65  81 S12       30.26F
$$

MAZALL-232000-
CENTRAL AND WESTERN MASSACHUSETTS

CITY           SKY/WX    TMP DP  RH WIND       PRES   REMARKS
WORCESTER      CLOUDY    66  56  70 SE8       30.25F
FITCHBURG      PTSUNNY   70  60  70 SE8       30.25F
ORANGE         PTSUNNY   68  58  70 S9        30.23F
SPRINGFIELD    PTSUNNY   73  58  58 S14       30.20F
WESTFIELD      CLOUDY    71  59  65 S9        30.21F
NORTH ADAMS    CLOUDY    67  56  67 E6        30.19F
PITTSFIELD     CLOUDY    66  55  67 S7        30.19F
$$

RIZALL-232000-
RHODE ISLAND

CITY           SKY/WX    TMP DP  RH WIND       PRES   REMARKS
PROVIDENCE     PTSUNNY   71  64  78 SE10      30.26F
NEWPORT        MOSUNNY   69  66  90 S9        30.25F
BLOCK ISLAND   SUNNY     69  65  86 SE13      30.24F
SMITHFIELD     MOSUNNY   70  60  70 VRB3      30.25F
WESTERLY       PTSUNNY   69  64  84 S7        30.25F
$$

CTZALL-232000-
CONNECTICUT

CITY           SKY/WX    TMP DP  RH WIND       PRES   REMARKS
BRADLEY INTL   CLOUDY    72  58  61 S14G20    30.21F
HARTFORD       CLOUDY    72  60  66 S12       30.21F
BRIDGEPORT     CLOUDY    72  61  68 S9        30.20F
DANBURY        CLOUDY    71  61  70 SE12      30.21F
GROTON         MOSUNNY   69  64  84 SE8       30.23F
NEW HAVEN      CLOUDY    71  62  73 SE8       30.22F
CHESTER        PTSUNNY   73  61  64 S9        30.24F
MERIDEN        CLOUDY    71  60  68 S13G21    30.21F
WILLIMANTIC    PTSUNNY   72  59  63 S12       30.23F
OXFORD         CLOUDY    68  61  78 S13       30.23S
$$

MEZ002-015-021-024-NHZ003-005-008-011-012-014-VTZ005-008-232000-
NORTHERN NEW ENGLAND

CITY           SKY/WX    TMP DP  RH WIND       PRES   REMARKS
PORTLAND ME    MOSUNNY   61  54  77 S8        30.27F
BANGOR ME      MOSUNNY   65  50  58 S12       30.25F
CONCORD NH     CLOUDY    66  55  67 S7        30.25F
MANCHESTER NH  PTSUNNY   65  56  72 S8        30.24F
NASHUA NH      MOSUNNY   66  57  72 S7        30.25F
PORTSMOUTH NH  PTSUNNY   62  56  79 E9        30.25F
JAFFREY NH     CLOUDY    67  57  70 S7        30.25F
KEENE NH       CLOUDY    67  57  70 W6        30.23F
BURLINGTON VT  PTSUNNY   72  55  55 S15G29    30.11F
MT. WASHINGTON MOSUNNY   50  21  32 SW28G38     N/A
$$

NYZ052-076-232000-
EASTERN NEW YORK

CITY           SKY/WX    TMP DP  RH WIND       PRES   REMARKS
ALBANY         CLOUDY    69  57  65 S12G21    30.16F
NEW YORK CITY  PTSUNNY   73  61  65 S15G24    30.17F
$$

ANZALL-232000-
MARINE OBSERVATIONS

STATION/POSITION TIME  TEMP    WIND        PRES    VSBY  WAVE
                       AIR SEA DIR/SP/G                  HT/PER
                 (UTC) (F)     (DEG/KT/KT) (MB)    (MI)  (FT/S)
BOSTON BUOY      1850   58 60   20/  8/ 10 1024.3F         1/10
BUZZARDS BAY     1800   63     140/ 11/ 12 1025.2F
NANTUCKET SOUND  1850   66 63  170/  8/  8 1024.7F         1
MASS BAY-STELLWA 1804   57 59   70/  2/  2 1024.6F         1/ 5
ISLE OF SHOALS   1800   55     160/  3/  3 1025.6F
S OF BLOCK IS    NOT AVBL
$$

......................KEY.........................
  SKY/WX - SKY CONDITION/PRESENT WEATHER
  TMP    - TEMPERATURE IN FAHRENHEIT
  DWPT   - DEWPOINT IN FAHRENHEIT
  RH     - RELATIVE HUMIDITY IN PERCENT
  WIND   - DIRECTION AND SPEED IN MPH
  PRES   - MEAN SEA LEVEL PRESSURE IN INCHES OF HG
  WCI    - WIND CHILL INDEX
  VSB    - VISIBILITY IN MILES
  HX     - HEAT INDEX
  TC     - TEMPERATURE IN CELSIUS
  VRB    - VARIABLE WIND DIRECTION
  N/A    - NOT AVAILABLE




USA.gov is the U.S. government's official web portal to all federal, state and local government web resources and services.